Location: Medlow Airstrip Trail, Medlow Bath NSW 2780, Australia
(33.6682°S, 150.3233°E)
Time: 18:49:25
(UTC+11:00)

Tiros 1 - Visible Passes

Search period start: 17 October 2019 00:00
Search period end: 27 October 2019 00:00
Orbit: 630 x 664 km, 48.4° (Epoch: 16 October)

Date Brightness Start Highest point End Pass type
(mag) Time Alt. Az. Time Alt. Az. Time Alt. Az.
17 Oct 8.6 20:41:19 10° SSW 20:45:15 26° SSE 20:46:51 21° ESE visible
17 Oct 9.6 22:23:06 10° SW 22:24:31 19° WSW 22:24:31 19° WSW visible
18 Oct 7.5 21:07:05 10° SW 21:11:38 48° SSE 21:11:50 48° SE visible
19 Oct 8.7 19:51:21 10° SSW 19:55:12 25° SSE 19:59:02 10° E visible
19 Oct 7.7 21:33:05 10° SW 21:36:51 56° WSW 21:36:51 56° WSW visible
20 Oct 7.7 20:17:06 10° SW 20:21:36 45° SSE 20:24:16 22° E visible
20 Oct 9.1 21:59:35 10° WSW 22:01:56 23° W 22:01:56 23° W visible
21 Oct 7.1 20:43:04 10° SW 20:47:45 82° NW 20:49:25 40° NE visible
22 Oct 8.3 21:09:30 10° WSW 21:13:40 32° NW 21:14:38 29° NNW visible
23 Oct 7.1 19:53:03 10° SW 19:57:44 89° NW 20:02:14 11° NE visible
23 Oct 9.6 21:37:25 10° WNW 21:39:22 12° NW 21:39:55 12° NW visible
24 Oct 8.3 20:19:25 10° WSW 20:23:40 36° NW 20:27:37 12° NNE visible
25 Oct 9.6 20:47:01 10° W 20:49:23 14° NW 20:51:47 10° NNW visible
